TimeMST,TemperatureF,Dew PointF,Humidity,Sea Level PressureIn,VisibilityMPH,Wind Direction,Wind SpeedMPH,Gust SpeedMPH,PrecipitationIn,Events,Conditions,WindDirDegrees,DateUTC
12:57 AM,15.1,8.1,74,30.11,10.0,Calm,Calm,-,N/A,,Clear,0,2013-02-23 07:57:00
1:57 AM,12.9,7.0,77,30.12,10.0,SW,3.5,-,N/A,,Clear,220,2013-02-23 08:57:00
2:57 AM,12.0,6.1,77,30.09,10.0,Calm,Calm,-,N/A,,Clear,0,2013-02-23 09:57:00
3:57 AM,14.0,7.0,74,30.07,10.0,SW,4.6,-,N/A,,Clear,220,2013-02-23 10:57:00
4:57 AM,14.0,6.1,71,30.07,10.0,SW,9.2,-,N/A,,Clear,220,2013-02-23 11:57:00
5:57 AM,12.0,6.1,77,30.06,10.0,Calm,Calm,-,N/A,,Clear,0,2013-02-23 12:57:00
6:57 AM,12.0,6.1,77,30.06,10.0,Calm,Calm,-,N/A,,Clear,0,2013-02-23 13:57:00
7:57 AM,21.0,9.0,60,30.03,10.0,WSW,6.9,-,N/A,,Clear,240,2013-02-23 14:57:00
8:57 AM,25.0,14.0,63,30.05,10.0,SSW,9.2,-,N/A,,Clear,210,2013-02-23 15:57:00
9:57 AM,28.9,17.1,61,30.01,10.0,SW,13.8,-,N/A,,Clear,220,2013-02-23 16:57:00
10:57 AM,33.1,16.0,50,30.00,10.0,SW,16.1,-,N/A,,Clear,220,2013-02-23 17:57:00
11:57 AM,33.1,19.0,56,29.97,10.0,SSW,18.4,-,N/A,,Clear,210,2013-02-23 18:57:00
12:57 PM,36.0,18.0,48,29.94,10.0,SW,20.7,27.6,N/A,,Clear,220,2013-02-23 19:57:00
1:57 PM,36.0,19.0,50,29.89,10.0,SSW,16.1,25.3,N/A,,Clear,210,2013-02-23 20:57:00
2:57 PM,36.0,21.0,55,29.85,10.0,SSW,21.9,28.8,N/A,,Clear,210,2013-02-23 21:57:00
3:57 PM,37.0,21.9,54,29.80,10.0,SSW,20.7,26.5,N/A,,Clear,210,2013-02-23 22:57:00
4:57 PM,37.0,21.0,52,29.81,10.0,SW,18.4,26.5,N/A,,Clear,220,2013-02-23 23:57:00
5:57 PM,35.1,19.9,54,29.83,10.0,WSW,13.8,24.2,N/A,,Clear,240,2013-02-24 00:57:00
6:57 PM,34.0,18.0,52,29.86,10.0,WSW,16.1,24.2,N/A,,Overcast,240,2013-02-24 01:57:00
7:57 PM,33.1,19.0,56,29.83,10.0,WSW,13.8,-,N/A,,Overcast,240,2013-02-24 02:57:00
8:57 PM,27.0,19.9,75,29.88,4.0,WNW,8.1,-,0.00,Snow,Light Snow,290,2013-02-24 03:57:00
9:57 PM,25.0,19.0,78,29.87,3.0,NW,10.4,-,0.00,Snow,Light Snow,320,2013-02-24 04:57:00
10:18 PM,24.8,19.4,80,29.87,2.0,NW,8.1,-,0.00,Snow,Light Snow,320,2013-02-24 05:18:00
10:33 PM,23.0,19.4,86,29.88,1.8,WNW,5.8,-,0.00,Snow,Light Snow,300,2013-02-24 05:33:00
10:57 PM,23.0,18.0,81,29.87,2.0,NW,6.9,16.1,0.00,Snow,Light Snow,320,2013-02-24 05:57:00
11:12 PM,23.0,17.6,80,29.87,1.8,NW,6.9,-,0.01,Snow,Light Snow,320,2013-02-24 06:12:00
11:19 PM,21.2,17.6,86,29.87,2.0,Variable,4.6,-,0.01,Snow,Light Snow,0,2013-02-24 06:19:00
11:35 PM,21.2,17.6,86,29.87,2.5,Variable,3.5,-,0.01,Snow,Light Snow,0,2013-02-24 06:35:00
11:43 PM,21.2,17.6,86,29.86,4.0,Variable,5.8,-,0.01,Snow,Light Snow,0,2013-02-24 06:43:00
11:57 PM,21.9,18.0,85,29.86,6.0,West,5.8,-,0.01,Snow,Light Snow,260,2013-02-24 06:57:00